Tracking 31027 objects as of 19-Jul-2025
HD Live streaming from Space Station
objects crossing your sky now

STARLINK-11111

Track STARLINK-11111 now!
10-day predictions
STARLINK-11111 is classified as:


NORAD ID: 59764
Int'l Code: 2024-091M
Perigee: 365.9 km
Apogee: 367.8 km
Inclination: 53.2 °
Period: 91.7 minutes
Semi major axis: 6737 km
RCS: Unknown
Launch date: May 14, 2024
Source: United States (US)
Launch site: AIR FORCE WESTERN TEST RANGE (AFWTR)
Your satellite tracking list
THORAD DELTA 1 DEB
Track 1 satellite(s)




NASA's NSSDC Master Catalog

Two Line Element Set (TLE):
1 59764U 24091M   25199.61295557 -.00002246  00000-0 -13679-4 0  9999
2 59764  53.1599 279.8267 0001393  87.0998 273.0180 15.69715191 68755
Source of the keplerian elements: AFSPC